Terminal Aerodrome Forecast
Issued by NWS La Crosse, WI

Home | Current Version | Previous Version | Text Only | Print | Product List | Glossary On
Versions: 1 2 3 4 5 6 7 8 9 10 11 12 13 14 15 16 17 18 19 20 21 22 23 24 25 26 27 28 29 30 31 32 33 34 35 36 37 38 39 40 41 42 43 44
000
FTUS43 KARX 212325
TAFLSE
TAF
KLSE 212325Z 2200/2224 17014KT 5SM -DZ BR OVC015
     FM220800 16011KT 4SM BR OVC008
     FM221500 14009KT 5SM BR OVC012
     FM222000 11008KT 5SM -RA BR OVC012=

USA.gov is the U.S. government's official web portal to all federal, state and local government web resources and services.